GSAT0203 (PRN E26)

Last updated on Jan. 19, 2021, 6:23 a.m. UTC

1 40544U 15017A   21018.00997060 -.00000076  00000-0  00000-0 0  9998
2 40544  56.5513  35.4990 0005509 261.7360  98.2393  1.70475027 35519
UTC
Height (km)
Latitude
Longitude
Inclination
Orbital Period
UTC large
Height (km)
Speed (km/s)
/
Latitude / Longitude
Inclination (degrees)
Orbital Period (minutes)
Azimuth
Elevation
Range (km)
Doppler Factor
iOS Compass Heading
iOS Angle

Next 30 passes for location: Hong Kong

Rise time Rise Azimuth (degrees) Set time Set Azimuth (degrees) Duration Max altitude (degrees)

No matching passes for this satellites